This is the latest recevied weather packets stored in our database for station/object G1SCQ. If no packets are shown the sender has not sent any weather packets the latest 10 day(s).
| Time | Temp. | Humidity | Pressure | Rain* | Wind** | Luminosity | Snow |
|---|---|---|---|---|---|---|---|
| 1777584963 | 10° C | 68% | 1022.5 hPa | 0 mm | - | 0 W/m² | - |
| 1777584423 | 10° C | 67% | 1022.4 hPa | 0 mm | - | 0 W/m² | - |
| 1777583886 | 10° C | 67% | 1022.6 hPa | 0 mm | - | 0 W/m² | - |
| 1777583346 | 10° C | 64% | 1022.6 hPa | 0 mm | - | 0 W/m² | - |
| 1777582806 | 10° C | 63% | 1022.8 hPa | 0 mm | - | 0 W/m² | - |
| 1777582446 | 10° C | 64% | 1022.7 hPa | 0 mm | - | 0 W/m² | - |
| 1777581906 | 10° C | 62% | 1022.7 hPa | 0 mm | - | 0 W/m² | - |
| 1777581366 | 10.56° C | 61% | 1022.8 hPa | 0 mm | - | 0 W/m² | - |
| 1777580826 | 11.11° C | 59% | 1022.7 hPa | 0 mm | - | 0 W/m² | - |
| 1777580286 | 11.11° C | 58% | 1022.5 hPa | 0 mm | - | 0 W/m² | - |
| 1777579746 | 11.11° C | 58% | 1022.4 hPa | 0 mm | - | 0 W/m² | - |
| 1777579206 | 11.67° C | 56% | 1022.7 hPa | 0 mm | - | 0 W/m² | - |
| 1777578846 | 12.22° C | 55% | 1022.6 hPa | 0 mm | - | 0 W/m² | - |
| 1777578306 | 12.78° C | 53% | 1022.5 hPa | 0 mm | - | 0 W/m² | - |
| 1777577766 | 12.78° C | 51% | 1022.3 hPa | 0 mm | - | 0 W/m² | - |
| 1777577226 | 13.33° C | 51% | 1022.2 hPa | 0 mm | - | 2 W/m² | - |
| 1777576686 | 13.33° C | 48% | 1022.3 hPa | 0 mm | - | 4 W/m² | - |
| 1777576146 | 14.44° C | 45% | 1022.1 hPa | 0 mm | - | 8 W/m² | - |
| 1777575606 | 14.44° C | 44% | 1021.9 hPa | 0 mm | - | 11 W/m² | - |
| 1777575246 | 15° C | 43% | 1022.2 hPa | 0 mm | - | 14 W/m² | - |
| 1777574706 | 15° C | 42% | 1022.1 hPa | 0 mm | - | 18 W/m² | - |
| 1777574165 | 15.56° C | 41% | 1022.1 hPa | 0 mm | - | 23 W/m² | - |
| 1777573625 | 16.67° C | 40% | 1022.3 hPa | 0 mm | - | 38 W/m² | - |
| 1777573085 | 16.67° C | 39% | 1022.2 hPa | 0 mm | - | 48 W/m² | - |
| 1777572545 | 16.67° C | 38% | 1022.3 hPa | 0 mm | - | 57 W/m² | - |
* Rain latest hour (hover to see other rain measurements)
** Current wind speed in m/s (hover to see current wind gust speed)